Time,TemperatureF,DewpointF,PressureIn,WindDirection,WindDirectionDegrees,WindSpeedMPH,WindSpeedGustMPH,Humidity,HourlyPrecipIn,Conditions,Clouds,dailyrainin,SoftwareType,DateUTC
2013-04-24 00:01:00,44.1,40.8,30.01,NE,50,6.0,13.0,88,0.00,,OVC012,0.00,VWS V14.00,2013-04-24 04:01:00,
2013-04-24 00:06:00,44.0,40.7,30.01,North,11,11.0,11.0,88,0.00,,OVC012,0.00,VWS V14.00,2013-04-24 04:06:00,
2013-04-24 00:11:00,44.0,40.7,30.01,NNE,26,19.0,19.0,88,0.00,,OVC012,0.00,VWS V14.00,2013-04-24 04:11:00,
2013-04-24 00:16:00,44.0,40.7,30.01,NNE,19,6.0,14.0,88,0.00,,OVC012,0.00,VWS V14.00,2013-04-24 04:16:00,
2013-04-24 00:21:00,44.0,40.7,30.01,WNW,300,8.0,10.0,88,0.00,,OVC012,0.00,VWS V14.00,2013-04-24 04:21:00,
2013-04-24 00:26:00,44.0,40.7,30.00,NE,46,15.0,15.0,88,0.00,,OVC012,0.00,VWS V14.00,2013-04-24 04:26:00,
2013-04-24 00:31:00,44.0,40.7,30.00,NE,53,5.0,11.0,88,0.00,,OVC012,0.00,VWS V14.00,2013-04-24 04:31:00,
2013-04-24 00:36:00,43.9,40.6,30.00,North,5,5.0,14.0,88,0.00,,OVC012,0.00,VWS V14.00,2013-04-24 04:36:00,
2013-04-24 00:41:00,43.9,40.6,30.00,North,351,5.0,12.0,88,0.00,,OVC012,0.00,VWS V14.00,2013-04-24 04:41:00,
2013-04-24 00:46:00,43.9,40.6,30.00,NE,48,3.0,13.0,88,0.00,,OVC012,0.00,VWS V14.00,2013-04-24 04:46:00,
2013-04-24 00:51:00,43.9,40.6,30.00,NE,46,5.0,19.0,88,0.00,,OVC012,0.00,VWS V14.00,2013-04-24 04:51:00,
2013-04-24 00:56:00,43.9,40.6,30.00,NE,47,5.0,14.0,88,0.00,,OVC012,0.00,VWS V14.00,2013-04-24 04:56:00,
2013-04-24 01:01:00,43.9,40.6,30.00,NNW,342,7.0,15.0,88,0.00,,OVC012,0.00,VWS V14.00,2013-04-24 05:01:00,
2013-04-24 01:06:00,44.0,40.7,30.00,NNE,19,3.0,14.0,88,0.00,,OVC012,0.00,VWS V14.00,2013-04-24 05:06:00,
2013-04-24 01:11:00,44.0,40.7,30.00,NE,36,3.0,7.0,88,0.00,,OVC012,0.00,VWS V14.00,2013-04-24 05:11:00,
2013-04-24 01:16:00,44.0,40.7,29.99,ENE,63,1.0,4.0,88,0.00,,OVC012,0.00,VWS V14.00,2013-04-24 05:16:00,
2013-04-24 01:21:00,44.0,40.7,30.00,NNW,334,4.0,6.0,88,0.00,,OVC012,0.00,VWS V14.00,2013-04-24 05:21:00,
2013-04-24 01:26:00,44.1,40.8,30.00,NNE,26,17.0,18.0,88,0.00,,OVC012,0.00,VWS V14.00,2013-04-24 05:26:00,
2013-04-24 01:31:00,44.1,40.8,30.00,NE,43,11.0,11.0,88,0.00,,OVC012,0.00,VWS V14.00,2013-04-24 05:31:00,
2013-04-24 01:35:00,44.1,40.8,30.00,NNE,17,2.0,15.0,88,0.00,,OVC012,0.00,VWS V14.00,2013-04-24 05:35:00,
2013-04-24 01:40:00,44.2,40.9,29.99,ESE,119,4.0,10.0,88,0.00,,OVC012,0.00,VWS V14.00,2013-04-24 05:40:00,
2013-04-24 01:45:00,44.2,40.6,29.99,NNE,32,4.0,10.0,87,0.00,,OVC012,0.00,VWS V14.00,2013-04-24 05:45:00,
2013-04-24 01:50:00,44.3,40.7,29.99,North,351,6.0,13.0,87,0.00,,OVC012,0.00,VWS V14.00,2013-04-24 05:50:00,
2013-04-24 01:55:00,44.3,40.7,29.99,NW,313,7.0,7.0,87,0.00,,OVC012,0.00,VWS V14.00,2013-04-24 05:55:00,
2013-04-24 02:00:00,44.3,41.0,29.99,NE,44,3.0,6.0,88,0.00,,OVC012,0.00,VWS V14.00,2013-04-24 06:00:00,
2013-04-24 02:05:00,44.3,41.0,29.98,North,11,4.0,6.0,88,0.00,,OVC012,0.00,VWS V14.00,2013-04-24 06:05:00,
2013-04-24 02:10:00,44.3,41.0,29.98,North,351,7.0,12.0,88,0.00,,OVC012,0.00,VWS V14.00,2013-04-24 06:10:00,
2013-04-24 02:15:00,44.2,40.9,29.98,NNE,24,2.0,12.0,88,0.00,,OVC012,0.00,VWS V14.00,2013-04-24 06:15:00,
2013-04-24 02:20:00,44.1,40.8,29.98,NNW,330,3.0,4.0,88,0.00,,OVC012,0.00,VWS V14.00,2013-04-24 06:20:00,
2013-04-24 02:25:00,44.1,40.8,29.97,NNW,330,3.0,7.0,88,0.00,,OVC012,0.00,VWS V14.00,2013-04-24 06:25:00,
2013-04-24 02:30:00,44.0,40.7,29.97,NNW,338,7.0,14.0,88,0.00,,OVC012,0.00,VWS V14.00,2013-04-24 06:30:00,
2013-04-24 02:35:00,43.9,40.6,29.97,ESE,110,5.0,13.0,88,0.00,,OVC012,0.00,VWS V14.00,2013-04-24 06:35:00,
2013-04-24 02:40:00,43.9,40.6,29.97,NE,50,2.0,10.0,88,0.00,,OVC012,0.00,VWS V14.00,2013-04-24 06:40:00,
2013-04-24 02:45:00,43.8,40.5,29.97,NW,315,5.0,9.0,88,0.00,,OVC012,0.00,VWS V14.00,2013-04-24 06:45:00,
2013-04-24 02:50:00,43.8,40.8,29.96,NNE,32,4.0,5.0,89,0.00,,OVC012,0.00,VWS V14.00,2013-04-24 06:50:00,
2013-04-24 02:55:00,43.7,40.7,29.96,NW,313,4.0,6.0,89,0.00,,OVC012,0.00,VWS V14.00,2013-04-24 06:55:00,
2013-04-24 03:00:00,43.7,40.7,29.96,NE,51,1.0,9.0,89,0.00,,OVC012,0.00,VWS V14.00,2013-04-24 07:00:00,
2013-04-24 03:05:00,43.6,40.6,29.95,NNE,14,4.0,10.0,89,0.00,,OVC012,0.00,VWS V14.00,2013-04-24 07:05:00,
2013-04-24 03:10:00,43.6,40.6,29.95,NNE,24,3.0,8.0,89,0.00,,OVC012,0.00,VWS V14.00,2013-04-24 07:10:00,
2013-04-24 03:15:00,43.5,40.5,29.95,WNW,286,3.0,11.0,89,0.00,,OVC012,0.00,VWS V14.00,2013-04-24 07:15:00,
2013-04-24 03:20:00,43.5,40.5,29.95,NW,318,7.0,11.0,89,0.00,,OVC012,0.00,VWS V14.00,2013-04-24 07:20:00,
2013-04-24 03:25:00,43.5,40.5,29.95,NNE,19,3.0,13.0,89,0.00,,OVC012,0.00,VWS V14.00,2013-04-24 07:25:00,
2013-04-24 03:30:00,43.5,40.5,29.95,NNE,28,7.0,12.0,89,0.00,,OVC012,0.00,VWS V14.00,2013-04-24 07:30:00,
2013-04-24 03:35:00,43.5,40.5,29.95,NE,43,1.0,6.0,89,0.00,,OVC012,0.00,VWS V14.00,2013-04-24 07:35:00,
2013-04-24 03:40:00,43.5,40.5,29.95,ENE,71,5.0,15.0,89,0.00,,OVC012,0.00,VWS V14.00,2013-04-24 07:40:00,
2013-04-24 03:45:00,43.5,40.5,29.95,NNW,338,7.0,7.0,89,0.00,,OVC012,0.00,VWS V14.00,2013-04-24 07:45:00,
2013-04-24 03:50:00,43.6,40.6,29.95,ENE,63,1.0,6.0,89,0.00,,OVC012,0.00,VWS V14.00,2013-04-24 07:50:00,
2013-04-24 03:55:00,43.6,40.6,29.95,ESE,110,3.0,5.0,89,0.00,,OVC012,0.00,VWS V14.00,2013-04-24 07:55:00,
2013-04-24 04:00:00,43.6,40.6,29.95,WNW,303,3.0,4.0,89,0.00,,OVC012,0.00,VWS V14.00,2013-04-24 08:00:00,
2013-04-24 04:05:00,43.6,40.6,29.95,NE,38,2.0,5.0,89,0.00,,OVC012,0.00,VWS V14.00,2013-04-24 08:05:00,
2013-04-24 04:10:00,43.5,40.5,29.95,NNW,334,7.0,7.0,89,0.00,,OVC012,0.00,VWS V14.00,2013-04-24 08:10:00,
2013-04-24 04:15:00,43.5,40.5,29.95,NW,325,6.0,9.0,89,0.00,,OVC012,0.00,VWS V14.00,2013-04-24 08:15:00,
2013-04-24 04:20:00,43.5,40.5,29.96,NE,35,3.0,10.0,89,0.00,,OVC012,0.00,VWS V14.00,2013-04-24 08:20:00,
2013-04-24 04:25:00,43.4,40.4,29.96,NNW,343,0.0,6.0,89,0.00,,OVC012,0.00,VWS V14.00,2013-04-24 08:25:00,
2013-04-24 04:30:00,43.4,40.4,29.97,NW,325,4.0,16.0,89,0.00,,OVC012,0.00,VWS V14.00,2013-04-24 08:30:00,
2013-04-24 04:35:00,43.4,40.4,29.97,WNW,292,1.0,9.0,89,0.00,,OVC012,0.00,VWS V14.00,2013-04-24 08:35:00,
2013-04-24 04:40:00,43.3,40.3,29.97,WNW,292,8.0,8.0,89,0.00,,OVC012,0.00,VWS V14.00,2013-04-24 08:40:00,
2013-04-24 04:45:00,43.3,40.3,29.97,NW,324,4.0,6.0,89,0.00,,OVC012,0.00,VWS V14.00,2013-04-24 08:45:00,
2013-04-24 04:50:00,43.2,40.2,29.97,NNE,17,3.0,6.0,89,0.00,,OVC012,0.00,VWS V14.00,2013-04-24 08:50:00,
2013-04-24 04:55:00,43.2,40.5,29.97,NE,38,11.0,11.0,90,0.00,,OVC012,0.00,VWS V14.00,2013-04-24 08:55:00,
2013-04-24 05:00:00,43.2,40.5,29.97,NNE,15,7.0,12.0,90,0.00,,OVC012,0.00,VWS V14.00,2013-04-24 09:00:00,
2013-04-24 05:05:00,43.2,40.5,29.97,West,267,3.0,14.0,90,0.00,,OVC012,0.00,VWS V14.00,2013-04-24 09:05:00,
2013-04-24 05:10:00,43.2,40.5,29.97,NW,316,1.0,9.0,90,0.00,,OVC012,0.00,VWS V14.00,2013-04-24 09:10:00,
2013-04-24 05:15:00,43.2,40.5,29.97,NW,325,5.0,14.0,90,0.00,,OVC012,0.00,VWS V14.00,2013-04-24 09:15:00,
2013-04-24 05:20:00,43.2,40.5,29.96,NE,51,3.0,12.0,90,0.00,,OVC012,0.00,VWS V14.00,2013-04-24 09:20:00,
2013-04-24 05:25:00,43.1,40.4,29.96,NNW,336,10.0,11.0,90,0.00,,OVC012,0.00,VWS V14.00,2013-04-24 09:25:00,
2013-04-24 05:30:00,43.0,40.3,29.96,NNE,13,5.0,10.0,90,0.00,,OVC012,0.00,VWS V14.00,2013-04-24 09:30:00,
2013-04-24 05:35:00,43.0,40.3,29.95,NNW,333,7.0,12.0,90,0.00,,OVC012,0.00,VWS V14.00,2013-04-24 09:35:00,
2013-04-24 05:40:00,42.9,40.2,29.95,NE,42,5.0,9.0,90,0.00,,OVC012,0.00,VWS V14.00,2013-04-24 09:40:00,
2013-04-24 05:45:00,42.9,40.2,29.95,NE,38,3.0,9.0,90,0.00,,OVC012,0.00,VWS V14.00,2013-04-24 09:45:00,
2013-04-24 05:50:00,42.9,40.2,29.95,East,91,7.0,11.0,90,0.00,,OVC012,0.00,VWS V14.00,2013-04-24 09:50:00,
2013-04-24 05:55:00,42.9,40.2,29.95,NNE,33,5.0,14.0,90,0.00,,OVC012,0.00,VWS V14.00,2013-04-24 09:55:00,
2013-04-24 06:00:00,42.9,40.2,29.95,ENE,62,3.0,11.0,90,0.00,,OVC012,0.00,VWS V14.00,2013-04-24 10:00:00,
2013-04-24 06:05:00,42.9,40.2,29.96,East,98,0.0,9.0,90,0.00,,OVC012,0.00,VWS V14.00,2013-04-24 10:05:00,
2013-04-24 06:10:00,43.0,40.3,29.98,North,10,0.0,4.0,90,0.00,,OVC012,0.00,VWS V14.00,2013-04-24 10:10:00,
2013-04-24 06:15:00,43.1,40.4,29.98,NNW,336,1.0,5.0,90,0.00,,OVC012,0.00,VWS V14.00,2013-04-24 10:15:00,
2013-04-24 06:20:00,43.2,40.5,29.98,NNW,339,5.0,6.0,90,0.00,,OVC012,0.00,VWS V14.00,2013-04-24 10:20:00,
2013-04-24 06:25:00,43.3,40.6,29.99,NNE,33,0.0,6.0,90,0.00,,OVC012,0.00,VWS V14.00,2013-04-24 10:25:00,
2013-04-24 06:30:00,43.3,40.6,29.99,NE,51,2.0,5.0,90,0.00,,OVC012,0.00,VWS V14.00,2013-04-24 10:30:00,
2013-04-24 06:35:00,43.4,40.7,30.00,NE,38,5.0,6.0,90,0.00,,OVC014,0.00,VWS V14.00,2013-04-24 10:35:00,
2013-04-24 06:40:00,43.4,40.7,30.00,NE,47,4.0,6.0,90,0.00,,OVC014,0.00,VWS V14.00,2013-04-24 10:40:00,
2013-04-24 06:45:00,43.5,40.8,30.00,NW,306,6.0,7.0,90,0.00,,OVC014,0.00,VWS V14.00,2013-04-24 10:45:00,
2013-04-24 06:50:00,43.6,40.6,30.00,NNW,340,2.0,4.0,89,0.00,,OVC014,0.00,VWS V14.00,2013-04-24 10:50:00,
2013-04-24 06:55:00,43.7,40.7,30.00,NE,36,2.0,5.0,89,0.00,,OVC014,0.00,VWS V14.00,2013-04-24 10:55:00,
2013-04-24 07:00:00,43.7,40.7,30.00,NW,322,5.0,10.0,89,0.00,,OVC014,0.00,VWS V14.00,2013-04-24 11:00:00,
2013-04-24 07:05:00,43.8,40.8,30.00,NNE,22,2.0,7.0,89,0.00,,OVC014,0.00,VWS V14.00,2013-04-24 11:05:00,
2013-04-24 07:10:00,43.9,40.9,30.01,NW,324,3.0,8.0,89,0.00,,OVC014,0.00,VWS V14.00,2013-04-24 11:10:00,
2013-04-24 07:15:00,44.0,40.7,30.01,NW,318,4.0,9.0,88,0.00,,OVC014,0.00,VWS V14.00,2013-04-24 11:15:00,
2013-04-24 07:20:00,44.1,40.8,30.01,NW,323,3.0,12.0,88,0.00,,OVC014,0.00,VWS V14.00,2013-04-24 11:20:00,
2013-04-24 07:25:00,44.2,40.9,30.01,NNE,30,6.0,14.0,88,0.00,,OVC014,0.00,VWS V14.00,2013-04-24 11:25:00,
2013-04-24 07:30:00,44.4,41.1,30.01,NW,315,3.0,6.0,88,0.00,,OVC014,0.00,VWS V14.00,2013-04-24 11:30:00,
2013-04-24 07:35:00,44.5,41.2,30.01,NNE,33,7.0,10.0,88,0.00,,OVC014,0.00,VWS V14.00,2013-04-24 11:35:00,
2013-04-24 07:40:00,44.6,41.0,30.01,NE,34,5.0,8.0,87,0.00,,OVC014,0.00,VWS V14.00,2013-04-24 11:40:00,
2013-04-24 07:45:00,44.9,41.6,30.00,NNE,21,6.0,9.0,88,0.00,,OVC014,0.00,VWS V14.00,2013-04-24 11:45:00,
2013-04-24 07:50:00,45.0,41.4,30.01,NW,311,2.0,6.0,87,0.00,,OVC014,0.00,VWS V14.00,2013-04-24 11:50:00,
2013-04-24 07:55:00,45.3,41.7,30.00,NE,38,1.0,3.0,87,0.00,,OVC014,0.00,VWS V14.00,2013-04-24 11:55:00,
2013-04-24 08:00:00,45.5,41.6,30.01,NNW,327,3.0,10.0,86,0.00,,OVC014,0.00,VWS V14.00,2013-04-24 12:00:00,
2013-04-24 08:05:00,45.7,41.8,30.01,ENE,71,4.0,10.0,86,0.00,,OVC014,0.00,VWS V14.00,2013-04-24 12:05:00,
2013-04-24 08:09:00,45.9,42.0,30.00,NNE,22,4.0,5.0,86,0.00,,OVC014,0.00,VWS V14.00,2013-04-24 12:09:00,
2013-04-24 08:14:00,46.4,42.5,30.00,WNW,292,3.0,6.0,86,0.00,,OVC014,0.00,VWS V14.00,2013-04-24 12:14:00,
2013-04-24 08:19:00,46.7,42.4,30.00,NNW,334,4.0,7.0,85,0.00,,OVC014,0.00,VWS V14.00,2013-04-24 12:19:00,
2013-04-24 08:24:00,47.1,42.5,30.01,North,360,1.0,4.0,84,0.00,,OVC014,0.00,VWS V14.00,2013-04-24 12:24:00,
2013-04-24 08:29:00,47.5,42.9,30.01,NE,50,3.0,6.0,84,0.00,,OVC014,0.00,VWS V14.00,2013-04-24 12:29:00,
2013-04-24 08:34:00,47.8,42.6,30.01,NW,313,5.0,7.0,82,0.00,,OVC012,0.00,VWS V14.00,2013-04-24 12:34:00,
2013-04-24 08:39:00,48.0,42.8,30.00,West,278,1.0,5.0,82,0.00,,OVC012,0.00,VWS V14.00,2013-04-24 12:39:00,
2013-04-24 08:44:00,48.4,43.2,30.00,NW,313,1.0,4.0,82,0.00,,OVC012,0.00,VWS V14.00,2013-04-24 12:44:00,
2013-04-24 08:49:00,48.9,43.3,30.00,SE,146,0.0,5.0,81,0.00,,OVC012,0.00,VWS V14.00,2013-04-24 12:49:00,
2013-04-24 08:54:00,49.7,43.8,30.00,WNW,296,5.0,6.0,80,0.00,,OVC012,0.00,VWS V14.00,2013-04-24 12:54:00,
2013-04-24 08:59:00,49.6,43.4,29.99,NE,49,2.0,4.0,79,0.00,,OVC012,0.00,VWS V14.00,2013-04-24 12:59:00,
2013-04-24 09:04:00,50.2,44.0,29.99,East,98,0.0,3.0,79,0.00,,OVC012,0.00,VWS V14.00,2013-04-24 13:04:00,
2013-04-24 09:09:00,50.7,44.1,29.99,NNE,17,0.0,6.0,78,0.00,,OVC012,0.00,VWS V14.00,2013-04-24 13:09:00,
2013-04-24 09:14:00,50.8,43.9,29.99,NE,51,3.0,5.0,77,0.00,,OVC012,0.00,VWS V14.00,2013-04-24 13:14:00,
2013-04-24 09:19:00,51.4,44.4,29.99,ESE,115,0.0,3.0,77,0.00,,OVC012,0.00,VWS V14.00,2013-04-24 13:19:00,
2013-04-24 09:24:00,52.0,44.7,29.99,NW,309,0.0,2.0,76,0.00,,OVC012,0.00,VWS V14.00,2013-04-24 13:24:00,
2013-04-24 09:29:00,52.9,45.5,29.98,SSE,150,2.0,4.0,76,0.00,,OVC012,0.00,VWS V14.00,2013-04-24 13:29:00,
2013-04-24 09:34:00,53.5,45.4,29.98,WSW,241,10.0,10.0,74,0.00,,SCT014,0.00,VWS V14.00,2013-04-24 13:34:00,
2013-04-24 09:39:00,52.5,45.2,29.98,SE,137,6.0,6.0,76,0.00,,SCT014,0.00,VWS V14.00,2013-04-24 13:39:00,
2013-04-24 09:44:00,52.5,45.2,29.98,SSE,159,4.0,12.0,76,0.00,,SCT014,0.00,VWS V14.00,2013-04-24 13:44:00,
2013-04-24 09:49:00,51.5,45.5,29.98,SSW,209,5.0,7.0,80,0.00,,SCT014,0.00,VWS V14.00,2013-04-24 13:49:00,
2013-04-24 09:54:00,51.6,45.6,29.98,SE,139,2.0,9.0,80,0.00,,SCT014,0.00,VWS V14.00,2013-04-24 13:54:00,
2013-04-24 09:59:00,51.3,44.7,29.98,West,263,3.0,10.0,78,0.00,,SCT014,0.00,VWS V14.00,2013-04-24 13:59:00,
2013-04-24 10:04:00,50.7,45.4,29.98,NW,309,2.0,4.0,82,0.00,,SCT014,0.00,VWS V14.00,2013-04-24 14:04:00,
2013-04-24 10:09:00,51.2,45.9,29.98,West,259,3.0,6.0,82,0.00,,SCT014,0.00,VWS V14.00,2013-04-24 14:09:00,
2013-04-24 10:14:00,50.2,44.6,29.98,WSW,245,11.0,13.0,81,0.00,,SCT014,0.00,VWS V14.00,2013-04-24 14:14:00,
2013-04-24 10:19:00,50.1,45.2,29.98,West,279,9.0,10.0,83,0.00,,SCT014,0.00,VWS V14.00,2013-04-24 14:19:00,
2013-04-24 10:24:00,49.7,44.4,29.98,SW,227,9.0,13.0,82,0.00,,SCT014,0.00,VWS V14.00,2013-04-24 14:24:00,
2013-04-24 10:29:00,49.9,45.0,29.98,SSW,206,13.0,13.0,83,0.00,,SCT014,0.00,VWS V14.00,2013-04-24 14:29:00,
2013-04-24 10:34:00,49.7,44.4,29.98,SW,233,4.0,16.0,82,0.00,,CLR,0.00,VWS V14.00,2013-04-24 14:34:00,
2013-04-24 10:39:00,49.8,44.8,29.98,WSW,248,12.0,16.0,83,0.00,,CLR,0.00,VWS V14.00,2013-04-24 14:39:00,
2013-04-24 10:44:00,49.8,45.2,29.98,South,191,8.0,8.0,84,0.00,,CLR,0.00,VWS V14.00,2013-04-24 14:44:00,
2013-04-24 10:49:00,49.8,44.8,29.98,West,260,3.0,13.0,83,0.00,,CLR,0.00,VWS V14.00,2013-04-24 14:49:00,
2013-04-24 10:54:00,49.7,44.8,29.98,West,260,10.0,13.0,83,0.00,,CLR,0.00,VWS V14.00,2013-04-24 14:54:00,
2013-04-24 10:59:00,49.6,44.7,29.98,SSW,193,4.0,18.0,83,0.00,,CLR,0.00,VWS V14.00,2013-04-24 14:59:00,
2013-04-24 11:04:00,50.1,45.8,29.98,SW,217,6.0,9.0,85,0.00,,CLR,0.00,VWS V14.00,2013-04-24 15:04:00,
2013-04-24 11:09:00,51.2,46.2,29.98,WSW,237,3.0,6.0,83,0.00,,CLR,0.00,VWS V14.00,2013-04-24 15:09:00,
2013-04-24 11:14:00,51.3,46.0,29.97,West,281,11.0,11.0,82,0.00,,CLR,0.00,VWS V14.00,2013-04-24 15:14:00,
2013-04-24 11:19:00,51.6,46.3,29.98,South,190,2.0,10.0,82,0.00,,CLR,0.00,VWS V14.00,2013-04-24 15:19:00,
2013-04-24 11:24:00,52.1,46.1,29.97,WSW,256,9.0,11.0,80,0.00,,CLR,0.00,VWS V14.00,2013-04-24 15:24:00,
2013-04-24 11:29:00,52.3,46.7,29.97,WSW,257,7.0,8.0,81,0.00,,CLR,0.00,VWS V14.00,2013-04-24 15:29:00,
2013-04-24 11:34:00,52.2,46.2,29.97,SSE,149,10.0,12.0,80,0.00,,CLR,0.00,VWS V14.00,2013-04-24 15:34:00,
2013-04-24 11:39:00,52.0,46.7,29.97,SSW,198,5.0,7.0,82,0.00,,CLR,0.00,VWS V14.00,2013-04-24 15:39:00,
2013-04-24 11:44:00,52.0,46.0,29.96,WSW,256,3.0,6.0,80,0.00,,CLR,0.00,VWS V14.00,2013-04-24 15:44:00,
2013-04-24 11:49:00,51.6,46.0,29.97,South,184,10.0,10.0,81,0.00,,CLR,0.00,VWS V14.00,2013-04-24 15:49:00,
2013-04-24 11:54:00,52.2,47.2,29.97,SE,134,7.0,7.0,83,0.00,,CLR,0.00,VWS V14.00,2013-04-24 15:54:00,
2013-04-24 11:59:00,52.2,46.5,29.96,South,178,5.0,5.0,81,0.00,,CLR,0.00,VWS V14.00,2013-04-24 15:59:00,
2013-04-24 12:04:00,52.4,46.1,29.96,WSW,249,4.0,7.0,79,0.00,,CLR,0.00,VWS V14.00,2013-04-24 16:04:00,
2013-04-24 12:09:00,52.3,46.0,29.95,SE,146,2.0,6.0,79,0.00,,CLR,0.00,VWS V14.00,2013-04-24 16:09:00,
2013-04-24 12:14:00,53.3,47.3,29.95,SSE,153,1.0,3.0,80,0.00,,CLR,0.00,VWS V14.00,2013-04-24 16:14:00,
2013-04-24 12:19:00,53.5,46.5,29.94,SW,229,11.0,11.0,77,0.00,,CLR,0.00,VWS V14.00,2013-04-24 16:19:00,
2013-04-24 12:24:00,53.4,47.4,29.95,West,269,7.0,11.0,80,0.00,,CLR,0.00,VWS V14.00,2013-04-24 16:24:00,
2013-04-24 12:29:00,52.2,45.6,29.94,NW,311,3.0,9.0,78,0.00,,CLR,0.00,VWS V14.00,2013-04-24 16:29:00,
2013-04-24 12:34:00,51.2,44.9,29.94,WSW,253,3.0,9.0,79,0.00,,CLR,0.00,VWS V14.00,2013-04-24 16:34:00,
2013-04-24 12:39:00,51.3,46.0,29.94,WSW,248,11.0,11.0,82,0.00,,CLR,0.00,VWS V14.00,2013-04-24 16:39:00,
2013-04-24 12:44:00,51.3,46.3,29.94,WNW,284,3.0,9.0,83,0.00,,CLR,0.00,VWS V14.00,2013-04-24 16:44:00,
2013-04-24 12:49:00,51.2,45.9,29.94,SW,215,6.0,6.0,82,0.00,,CLR,0.00,VWS V14.00,2013-04-24 16:49:00,
2013-04-24 12:54:00,52.4,47.1,29.93,WNW,283,0.0,7.0,82,0.00,,CLR,0.00,VWS V14.00,2013-04-24 16:54:00,
2013-04-24 12:59:00,53.5,46.8,29.93,South,179,3.0,6.0,78,0.00,,CLR,0.00,VWS V14.00,2013-04-24 16:59:00,
2013-04-24 13:04:00,53.9,47.2,29.93,West,259,14.0,15.0,78,0.00,,CLR,0.00,VWS V14.00,2013-04-24 17:04:00,
2013-04-24 13:09:00,54.5,47.1,29.92,SW,230,4.0,6.0,76,0.00,,CLR,0.00,VWS V14.00,2013-04-24 17:09:00,
2013-04-24 13:14:00,55.2,46.7,29.92,West,272,3.0,11.0,73,0.00,,CLR,0.00,VWS V14.00,2013-04-24 17:14:00,
2013-04-24 13:19:00,56.0,48.2,29.91,SSE,157,8.0,9.0,75,0.00,,CLR,0.00,VWS V14.00,2013-04-24 17:19:00,
2013-04-24 13:24:00,56.6,47.7,29.91,WNW,301,7.0,7.0,72,0.00,,CLR,0.00,VWS V14.00,2013-04-24 17:24:00,
2013-04-24 13:29:00,56.7,47.8,29.91,WSW,254,7.0,11.0,72,0.00,,CLR,0.00,VWS V14.00,2013-04-24 17:29:00,
2013-04-24 13:34:00,56.9,48.0,29.91,West,264,7.0,14.0,72,0.00,,CLR,0.00,VWS V14.00,2013-04-24 17:34:00,
2013-04-24 13:39:00,57.4,46.5,29.91,SSW,196,4.0,10.0,67,0.00,,CLR,0.00,VWS V14.00,2013-04-24 17:39:00,
2013-04-24 13:44:00,57.5,47.8,29.91,WNW,283,8.0,9.0,70,0.00,,CLR,0.00,VWS V14.00,2013-04-24 17:44:00,
2013-04-24 13:49:00,58.0,47.9,29.90,WNW,288,9.0,14.0,69,0.00,,CLR,0.00,VWS V14.00,2013-04-24 17:49:00,
2013-04-24 13:54:00,57.8,47.3,29.90,SW,235,10.0,10.0,68,0.00,,CLR,0.00,VWS V14.00,2013-04-24 17:54:00,
2013-04-24 13:59:00,58.3,47.4,29.90,SSE,163,6.0,6.0,67,0.00,,CLR,0.00,VWS V14.00,2013-04-24 17:59:00,
2013-04-24 14:04:00,59.5,47.3,29.90,West,277,3.0,4.0,64,0.00,,CLR,0.00,VWS V14.00,2013-04-24 18:04:00,
2013-04-24 14:09:00,60.2,47.6,29.90,NW,310,1.0,2.0,63,0.00,,CLR,0.00,VWS V14.00,2013-04-24 18:09:00,
2013-04-24 14:14:00,60.8,48.1,29.90,SW,226,5.0,7.0,63,0.00,,CLR,0.00,VWS V14.00,2013-04-24 18:14:00,
2013-04-24 14:19:00,60.7,48.5,29.90,West,280,3.0,3.0,64,0.00,,CLR,0.00,VWS V14.00,2013-04-24 18:19:00,
2013-04-24 14:24:00,60.8,48.1,29.89,West,273,1.0,2.0,63,0.00,,CLR,0.00,VWS V14.00,2013-04-24 18:24:00,
2013-04-24 14:29:00,61.8,48.7,29.89,South,188,2.0,7.0,62,0.00,,CLR,0.00,VWS V14.00,2013-04-24 18:29:00,
2013-04-24 14:34:00,62.3,47.8,29.89,SW,232,6.0,14.0,59,0.00,,CLR,0.00,VWS V14.00,2013-04-24 18:34:00,
2013-04-24 14:39:00,61.5,50.5,29.89,SSE,165,6.0,6.0,67,0.00,,CLR,0.00,VWS V14.00,2013-04-24 18:39:00,
2013-04-24 14:44:00,60.1,49.1,29.89,WNW,287,2.0,9.0,67,0.00,,CLR,0.00,VWS V14.00,2013-04-24 18:44:00,
2013-04-24 14:49:00,59.2,49.0,29.89,SSW,209,10.0,10.0,69,0.00,,CLR,0.00,VWS V14.00,2013-04-24 18:49:00,
2013-04-24 14:54:00,58.5,48.8,29.89,WSW,247,7.0,7.0,70,0.00,,CLR,0.00,VWS V14.00,2013-04-24 18:54:00,
2013-04-24 14:59:00,58.5,48.8,29.89,South,175,6.0,7.0,70,0.00,,CLR,0.00,VWS V14.00,2013-04-24 18:59:00,
2013-04-24 15:04:00,58.4,48.7,29.89,SSE,158,5.0,5.0,70,0.00,,CLR,0.00,VWS V14.00,2013-04-24 19:04:00,
2013-04-24 15:09:00,59.5,49.7,29.89,WSW,252,3.0,3.0,70,0.00,,CLR,0.00,VWS V14.00,2013-04-24 19:09:00,
2013-04-24 15:14:00,60.6,48.8,29.89,SW,225,10.0,10.0,65,0.00,,CLR,0.00,VWS V14.00,2013-04-24 19:14:00,
2013-04-24 15:19:00,59.3,48.8,29.89,South,177,3.0,8.0,68,0.00,,CLR,0.00,VWS V14.00,2013-04-24 19:19:00,
2013-04-24 15:24:00,58.9,48.0,29.89,SW,229,7.0,7.0,67,0.00,,CLR,0.00,VWS V14.00,2013-04-24 19:24:00,
2013-04-24 15:29:00,57.9,47.4,29.89,WSW,242,11.0,15.0,68,0.00,,CLR,0.00,VWS V14.00,2013-04-24 19:29:00,
2013-04-24 15:34:00,58.4,49.4,29.88,SSE,152,4.0,4.0,72,0.00,,CLR,0.00,VWS V14.00,2013-04-24 19:34:00,
2013-04-24 15:39:00,57.6,47.5,29.89,WSW,242,9.0,11.0,69,0.00,,CLR,0.00,VWS V14.00,2013-04-24 19:39:00,
2013-04-24 15:44:00,57.8,48.8,29.88,WSW,244,5.0,5.0,72,0.00,,CLR,0.00,VWS V14.00,2013-04-24 19:44:00,
2013-04-24 15:49:00,58.3,48.2,29.88,SE,134,2.0,6.0,69,0.00,,CLR,0.00,VWS V14.00,2013-04-24 19:49:00,
2013-04-24 15:54:00,58.4,49.0,29.88,South,175,5.0,6.0,71,0.00,,CLR,0.00,VWS V14.00,2013-04-24 19:54:00,
2013-04-24 15:58:00,58.4,49.4,29.88,WSW,244,11.0,11.0,72,0.00,,CLR,0.00,VWS V14.00,2013-04-24 19:58:00,
2013-04-24 16:03:00,58.3,48.2,29.88,SW,221,11.0,11.0,69,0.00,,CLR,0.00,VWS V14.00,2013-04-24 20:03:00,
2013-04-24 16:08:00,58.5,48.8,29.88,West,265,2.0,2.0,70,0.00,,CLR,0.00,VWS V14.00,2013-04-24 20:08:00,
2013-04-24 16:13:00,58.1,48.0,29.89,South,191,2.0,3.0,69,0.00,,CLR,0.00,VWS V14.00,2013-04-24 20:13:00,
2013-04-24 16:18:00,57.7,48.0,29.88,West,280,6.0,11.0,70,0.00,,CLR,0.00,VWS V14.00,2013-04-24 20:18:00,
2013-04-24 16:23:00,57.7,49.5,29.88,SE,142,4.0,7.0,74,0.00,,CLR,0.00,VWS V14.00,2013-04-24 20:23:00,
2013-04-24 16:28:00,57.6,49.8,29.88,SSW,196,10.0,13.0,75,0.00,,CLR,0.00,VWS V14.00,2013-04-24 20:28:00,
2013-04-24 16:33:00,57.8,49.9,29.88,SSW,207,5.0,6.0,75,0.00,,CLR,0.00,VWS V14.00,2013-04-24 20:33:00,
2013-04-24 16:38:00,58.1,50.2,29.87,SSE,157,5.0,6.0,75,0.00,,CLR,0.00,VWS V14.00,2013-04-24 20:38:00,
2013-04-24 16:43:00,58.0,49.4,29.87,South,179,9.0,9.0,73,0.00,,CLR,0.00,VWS V14.00,2013-04-24 20:43:00,
2013-04-24 16:48:00,57.7,49.1,29.88,SSW,196,10.0,11.0,73,0.00,,CLR,0.00,VWS V14.00,2013-04-24 20:48:00,
2013-04-24 16:53:00,57.6,49.4,29.88,SE,138,9.0,10.0,74,0.00,,CLR,0.00,VWS V14.00,2013-04-24 20:53:00,
2013-04-24 16:58:00,57.2,49.0,29.88,SSE,164,14.0,14.0,74,0.00,,CLR,0.00,VWS V14.00,2013-04-24 20:58:00,
2013-04-24 17:03:00,56.7,48.9,29.87,SE,142,6.0,6.0,75,0.00,,CLR,0.00,VWS V14.00,2013-04-24 21:03:00,
2013-04-24 17:08:00,56.6,49.1,29.88,SSW,200,6.0,6.0,76,0.00,,CLR,0.00,VWS V14.00,2013-04-24 21:08:00,
2013-04-24 17:13:00,56.6,49.1,29.88,South,176,7.0,15.0,76,0.00,,CLR,0.00,VWS V14.00,2013-04-24 21:13:00,
2013-04-24 17:18:00,56.4,49.3,29.88,South,186,6.0,6.0,77,0.00,,CLR,0.00,VWS V14.00,2013-04-24 21:18:00,
2013-04-24 17:23:00,56.7,49.6,29.89,SE,145,7.0,7.0,77,0.00,,CLR,0.00,VWS V14.00,2013-04-24 21:23:00,
2013-04-24 17:28:00,56.5,49.0,29.89,South,187,5.0,5.0,76,0.00,,CLR,0.00,VWS V14.00,2013-04-24 21:28:00,
2013-04-24 17:33:00,56.0,48.9,29.89,South,191,12.0,12.0,77,0.00,,CLR,0.00,VWS V14.00,2013-04-24 21:33:00,
2013-04-24 17:38:00,55.4,48.7,29.89,South,171,10.0,16.0,78,0.00,,CLR,0.00,VWS V14.00,2013-04-24 21:38:00,
2013-04-24 17:43:00,55.2,48.8,29.88,West,261,14.0,14.0,79,0.00,,CLR,0.00,VWS V14.00,2013-04-24 21:43:00,
2013-04-24 17:48:00,55.2,48.8,29.89,SSE,157,6.0,14.0,79,0.00,,CLR,0.00,VWS V14.00,2013-04-24 21:48:00,
2013-04-24 17:53:00,55.0,48.6,29.89,WSW,244,6.0,11.0,79,0.00,,CLR,0.00,VWS V14.00,2013-04-24 21:53:00,
2013-04-24 17:58:00,54.9,48.5,29.89,South,182,4.0,15.0,79,0.00,,CLR,0.00,VWS V14.00,2013-04-24 21:58:00,
2013-04-24 18:03:00,54.8,48.4,29.88,SW,221,9.0,11.0,79,0.00,,CLR,0.00,VWS V14.00,2013-04-24 22:03:00,
2013-04-24 18:08:00,54.5,48.1,29.88,WSW,238,6.0,12.0,79,0.00,,CLR,0.00,VWS V14.00,2013-04-24 22:08:00,
2013-04-24 18:13:00,54.1,48.1,29.89,SSW,202,5.0,12.0,80,0.00,,CLR,0.00,VWS V14.00,2013-04-24 22:13:00,
2013-04-24 18:18:00,53.6,47.9,29.89,SE,145,5.0,11.0,81,0.00,,CLR,0.00,VWS V14.00,2013-04-24 22:18:00,
2013-04-24 18:23:00,53.0,47.7,29.88,SSW,194,7.0,11.0,82,0.00,,CLR,0.00,VWS V14.00,2013-04-24 22:23:00,
2013-04-24 18:28:00,52.3,47.3,29.88,SW,218,11.0,12.0,83,0.00,,CLR,0.00,VWS V14.00,2013-04-24 22:28:00,
2013-04-24 18:33:00,51.7,47.0,29.89,SSW,199,10.0,15.0,84,0.00,,CLR,0.00,VWS V14.00,2013-04-24 22:33:00,
2013-04-24 18:38:00,50.9,46.6,29.89,SE,146,9.0,14.0,85,0.00,,CLR,0.00,VWS V14.00,2013-04-24 22:38:00,
2013-04-24 18:43:00,50.3,46.6,29.89,SSE,159,7.0,12.0,87,0.00,,CLR,0.00,VWS V14.00,2013-04-24 22:43:00,
2013-04-24 18:48:00,49.8,46.4,29.89,South,191,13.0,15.0,88,0.00,,CLR,0.00,VWS V14.00,2013-04-24 22:48:00,
2013-04-24 18:53:00,49.2,46.1,29.89,South,179,7.0,13.0,89,0.00,,CLR,0.00,VWS V14.00,2013-04-24 22:53:00,
2013-04-24 18:58:00,48.7,45.9,29.89,South,172,8.0,12.0,90,0.00,,CLR,0.00,VWS V14.00,2013-04-24 22:58:00,
2013-04-24 19:03:00,48.4,45.9,29.88,SSE,156,5.0,14.0,91,0.00,,CLR,0.00,VWS V14.00,2013-04-24 23:03:00,
2013-04-24 19:08:00,48.3,46.1,29.88,SSE,162,8.0,13.0,92,0.00,,CLR,0.00,VWS V14.00,2013-04-24 23:08:00,
2013-04-24 19:13:00,48.1,45.9,29.88,SSW,205,11.0,14.0,92,0.00,,CLR,0.00,VWS V14.00,2013-04-24 23:13:00,
2013-04-24 19:18:00,48.1,46.2,29.88,SSE,164,5.0,13.0,93,0.00,,CLR,0.00,VWS V14.00,2013-04-24 23:18:00,
2013-04-24 19:23:00,48.0,46.1,29.89,SSE,161,4.0,12.0,93,0.00,,CLR,0.00,VWS V14.00,2013-04-24 23:23:00,
2013-04-24 19:28:00,47.9,46.0,29.89,SSE,161,4.0,15.0,93,0.00,,CLR,0.00,VWS V14.00,2013-04-24 23:28:00,
2013-04-24 19:33:00,47.7,45.8,29.88,South,190,6.0,14.0,93,0.00,,,0.00,VWS V14.00,2013-04-24 23:33:00,
2013-04-24 19:38:00,47.6,46.0,29.88,SSW,196,9.0,10.0,94,0.00,,,0.00,VWS V14.00,2013-04-24 23:38:00,
2013-04-24 19:43:00,47.6,46.0,29.89,SSE,147,5.0,12.0,94,0.00,,,0.00,VWS V14.00,2013-04-24 23:43:00,
2013-04-24 19:48:00,47.4,45.8,29.88,SSW,213,4.0,12.0,94,0.00,,,0.00,VWS V14.00,2013-04-24 23:48:00,
2013-04-24 19:53:00,47.2,45.8,29.89,SSW,203,9.0,16.0,95,0.00,,,0.00,VWS V14.00,2013-04-24 23:53:00,
2013-04-24 19:58:00,47.2,45.8,29.89,SSE,157,5.0,12.0,95,0.00,,,0.00,VWS V14.00,2013-04-24 23:58:00,
2013-04-24 20:03:00,47.1,45.7,29.89,South,179,3.0,12.0,95,0.00,,,0.00,VWS V14.00,2013-04-25 00:03:00,
2013-04-24 20:08:00,47.0,45.7,29.89,SSE,164,6.0,11.0,95,0.00,,,0.00,VWS V14.00,2013-04-25 00:08:00,
2013-04-24 20:13:00,47.0,45.9,29.89,SSE,157,4.0,10.0,96,0.00,,,0.00,VWS V14.00,2013-04-25 00:13:00,
2013-04-24 20:18:00,46.9,45.8,29.89,SSE,167,2.0,9.0,96,0.00,,,0.00,VWS V14.00,2013-04-25 00:18:00,
2013-04-24 20:23:00,46.9,45.8,29.89,South,182,7.0,9.0,96,0.00,,,0.00,VWS V14.00,2013-04-25 00:23:00,
2013-04-24 20:28:00,46.9,45.8,29.90,SW,217,5.0,9.0,96,0.00,,,0.00,VWS V14.00,2013-04-25 00:28:00,
2013-04-24 20:33:00,47.0,45.9,29.89,SSW,202,4.0,11.0,96,0.00,,,0.00,VWS V14.00,2013-04-25 00:33:00,
2013-04-24 20:38:00,47.0,45.9,29.90,SSE,164,2.0,10.0,96,0.00,,,0.00,VWS V14.00,2013-04-25 00:38:00,
2013-04-24 20:43:00,47.1,46.0,29.90,SW,234,6.0,10.0,96,0.00,,,0.00,VWS V14.00,2013-04-25 00:43:00,
2013-04-24 20:48:00,47.1,46.0,29.91,SSE,153,7.0,10.0,96,0.00,,,0.00,VWS V14.00,2013-04-25 00:48:00,
2013-04-24 20:53:00,47.1,46.0,29.91,WSW,247,3.0,10.0,96,0.00,,,0.00,VWS V14.00,2013-04-25 00:53:00,
2013-04-24 20:58:00,47.1,46.0,29.92,WSW,246,11.0,11.0,96,0.00,,,0.00,VWS V14.00,2013-04-25 00:58:00,
2013-04-24 21:03:00,47.1,46.0,29.92,West,260,6.0,9.0,96,0.00,,,0.00,VWS V14.00,2013-04-25 01:03:00,
2013-04-24 21:08:00,47.1,46.0,29.92,SSW,206,5.0,12.0,96,0.00,,,0.00,VWS V14.00,2013-04-25 01:08:00,
2013-04-24 21:13:00,47.2,46.1,29.93,SW,214,6.0,12.0,96,0.00,,,0.00,VWS V14.00,2013-04-25 01:13:00,
2013-04-24 21:18:00,47.3,46.2,29.93,SSE,165,3.0,12.0,96,0.00,,,0.00,VWS V14.00,2013-04-25 01:18:00,
2013-04-24 21:23:00,47.3,46.2,29.93,SSE,164,7.0,11.0,96,0.00,,,0.00,VWS V14.00,2013-04-25 01:23:00,
2013-04-24 21:28:00,47.3,46.2,29.92,South,175,6.0,11.0,96,0.00,,,0.00,VWS V14.00,2013-04-25 01:28:00,
2013-04-24 21:33:00,47.4,46.6,29.92,South,186,3.0,9.0,97,0.00,,,0.00,VWS V14.00,2013-04-25 01:33:00,
2013-04-24 21:38:00,47.4,46.6,29.92,South,178,3.0,8.0,97,0.00,,,0.00,VWS V14.00,2013-04-25 01:38:00,
2013-04-24 21:43:00,47.4,46.6,29.92,SSE,155,5.0,11.0,97,0.00,,,0.00,VWS V14.00,2013-04-25 01:43:00,
2013-04-24 21:48:00,47.3,46.5,29.92,SE,146,6.0,10.0,97,0.00,,,0.00,VWS V14.00,2013-04-25 01:48:00,
2013-04-24 21:53:00,47.1,46.3,29.91,SSE,168,6.0,10.0,97,0.00,,,0.00,VWS V14.00,2013-04-25 01:53:00,
2013-04-24 21:58:00,47.1,46.3,29.91,SSE,164,5.0,7.0,97,0.00,,,0.00,VWS V14.00,2013-04-25 01:58:00,
2013-04-24 22:03:00,47.1,46.3,29.91,SSW,206,9.0,9.0,97,0.00,,,0.00,VWS V14.00,2013-04-25 02:03:00,
2013-04-24 22:08:00,47.1,46.3,29.91,SSE,165,3.0,9.0,97,0.00,,,0.00,VWS V14.00,2013-04-25 02:08:00,
2013-04-24 22:13:00,47.3,46.5,29.91,South,181,2.0,7.0,97,0.00,,,0.00,VWS V14.00,2013-04-25 02:13:00,
2013-04-24 22:17:00,47.4,46.6,29.91,SSE,164,5.0,7.0,97,0.00,,,0.00,VWS V14.00,2013-04-25 02:17:00,
2013-04-24 22:22:00,47.5,47.0,29.91,SSE,150,5.0,7.0,98,0.00,,,0.00,VWS V14.00,2013-04-25 02:22:00,
2013-04-24 22:27:00,47.6,47.1,29.91,South,184,7.0,7.0,98,0.00,,,0.00,VWS V14.00,2013-04-25 02:27:00,
2013-04-24 22:32:00,47.7,47.2,29.91,SSE,162,4.0,11.0,98,0.00,,,0.00,VWS V14.00,2013-04-25 02:32:00,
2013-04-24 22:37:00,47.8,47.3,29.90,SSE,148,6.0,11.0,98,0.00,,,0.00,VWS V14.00,2013-04-25 02:37:00,
2013-04-24 22:42:00,48.0,47.5,29.91,WSW,241,4.0,9.0,98,0.00,,,0.00,VWS V14.00,2013-04-25 02:42:00,
2013-04-24 22:47:00,48.2,47.7,29.91,SE,146,6.0,9.0,98,0.00,,,0.00,VWS V14.00,2013-04-25 02:47:00,
2013-04-24 22:52:00,48.3,47.8,29.90,SSE,156,6.0,9.0,98,0.00,,,0.00,VWS V14.00,2013-04-25 02:52:00,
2013-04-24 22:57:00,48.4,47.9,29.90,SSE,163,6.0,10.0,98,0.00,,,0.00,VWS V14.00,2013-04-25 02:57:00,
2013-04-24 23:02:00,48.5,48.0,29.90,SSE,161,5.0,6.0,98,0.00,,,0.00,VWS V14.00,2013-04-25 03:02:00,
2013-04-24 23:07:00,48.5,48.0,29.90,South,171,5.0,10.0,98,0.00,,,0.00,VWS V14.00,2013-04-25 03:07:00,
2013-04-24 23:12:00,48.6,48.1,29.90,SSE,157,2.0,6.0,98,0.00,,,0.00,VWS V14.00,2013-04-25 03:12:00,
2013-04-24 23:17:00,48.7,48.2,29.90,West,267,4.0,4.0,98,0.00,,,0.00,VWS V14.00,2013-04-25 03:17:00,
2013-04-24 23:22:00,48.8,48.3,29.90,WSW,240,3.0,3.0,98,0.00,,,0.00,VWS V14.00,2013-04-25 03:22:00,
2013-04-24 23:27:00,48.8,48.3,29.90,SSW,209,2.0,5.0,98,0.00,,,0.00,VWS V14.00,2013-04-25 03:27:00,
2013-04-24 23:32:00,48.9,48.4,29.90,SSE,164,1.0,8.0,98,0.00,,,0.00,VWS V14.00,2013-04-25 03:32:00,
2013-04-24 23:37:00,49.2,48.7,29.90,WSW,257,1.0,8.0,98,0.00,,,0.00,VWS V14.00,2013-04-25 03:37:00,
2013-04-24 23:42:00,49.4,48.9,29.89,WSW,249,3.0,9.0,98,0.00,,,0.00,VWS V14.00,2013-04-25 03:42:00,
2013-04-24 23:47:00,49.4,48.9,29.90,SSE,166,0.0,5.0,98,0.00,,,0.00,VWS V14.00,2013-04-25 03:47:00,
2013-04-24 23:52:00,49.4,48.6,29.90,West,265,2.0,8.0,97,0.00,,,0.00,VWS V14.00,2013-04-25 03:52:00,
2013-04-24 23:57:00,49.4,48.6,29.90,SW,215,2.0,4.0,97,0.00,,,0.00,VWS V14.00,2013-04-25 03:57:00,